Location: Caltech
(34.1382°N, 118.1253°W)
Time: 21:55:01
(UTC-07:00)

UOSAT-12 - Visible Passes

Search period start: 23 August 2017 00:00
Search period end: 02 September 2017 00:00
Orbit: 599 x 655 km, 64.6° (Epoch: 23 August)

Date Brightness Start Highest point End Pass type
(mag) Time Alt. Az. Time Alt. Az. Time Alt. Az.
25 Aug 9.8 22:37:54 14° N 22:37:54 14° N 22:38:41 10° N visible
26 Aug 8.7 21:17:04 22° NE 21:17:04 22° NE 21:18:47 10° NE visible
26 Aug 9.9 22:53:57 14° WNW 22:54:44 15° NW 22:57:22 10° NNW visible
27 Aug 10.0 05:43:25 10° N 05:46:52 20° NE 05:50:17 10° E visible
27 Aug 8.9 19:53:03 10° SE 19:54:32 11° ESE 19:56:02 10° E visible
27 Aug 7.6 21:29:36 10° SW 21:34:03 58° WNW 21:38:36 10° NNE visible
28 Aug 7.9 20:10:10 10° S 20:13:59 28° ESE 20:17:53 10° NE visible
28 Aug 9.2 21:50:12 10° WSW 21:54:01 26° NW 21:57:54 10° N visible
29 Aug 10.5 04:44:32 10° NNE 04:46:04 11° NE 04:47:35 10° ENE visible
29 Aug 7.0 20:29:09 10° SSW 20:33:37 70° ESE 20:38:12 10° NE visible
29 Aug 10.3 22:12:07 10° WNW 22:14:11 13° NW 22:16:17 10° NNW visible
30 Aug 9.7 05:02:33 10° N 05:06:18 23° NE 05:10:01 10° ESE visible
30 Aug 8.1 20:49:03 10° SW 20:53:25 48° WNW 20:57:53 10° NNE visible
31 Aug 8.2 05:21:44 10° NNW 05:26:18 49° ENE 05:30:49 10° SE visible
31 Aug 9.6 21:09:52 10° WSW 21:13:26 22° NW 21:17:03 10° N visible
01 Sep 10.3 04:03:16 10° NNE 04:05:32 13° NE 04:07:48 10° ENE visible
01 Sep 7.1 05:41:26 10° NW 05:46:07 71° WSW 05:50:44 10° SSE visible
01 Sep 7.1 19:48:27 10° SSW 19:52:57 84° ESE 19:57:35 10° NNE visible
01 Sep 10.5 21:32:24 10° WNW 21:33:40 11° NW 21:34:56 10° NNW visible
